| time (UTC) | temp C | wind direction | speed KPH | gust KPH | rain 1hr cm | rain 24hr cm | rain mn cm | humidity % | barometer mb |
| 20260509040205 | 15 | 159 | 0.0 | 0.0 | 0.00 | 0.00 | 0.00 | 36 | 1016.8 |
| 20260509035704 | 15 | 151 | 0.0 | 0.0 | 0.00 | 0.00 | 0.00 | 36 | 1016.8 |
| 20260509035136 | 15 | 151 | 0.0 | 0.0 | 0.00 | 0.00 | 0.00 | 36 | 1016.9 |
| 20260509034621 | 15 | 151 | 0.0 | 0.0 | 0.00 | 0.00 | 0.00 | 35 | 1016.9 |
| 20260509034120 | 15 | 151 | 0.0 | 0.0 | 0.00 | 0.00 | 0.00 | 35 | 1016.8 |
| 20260509033556 | 15 | 150 | 0.0 | 0.0 | 0.00 | 0.00 | 0.00 | 35 | 1016.9 |
| 20260509033045 | 15 | 150 | 0.0 | 0.0 | 0.00 | 0.00 | 0.00 | 35 | 1016.8 |
| 20260509032544 | 15 | 151 | 0.0 | 0.0 | 0.00 | 0.00 | 0.00 | 34 | 1016.7 |
| 20260509032259 | 16 | 150 | 0.0 | 0.0 | 0.00 | 0.00 | 0.00 | 34 | 1016.7 |
| 20260509031529 | 16 | 177 | 0.0 | 0.0 | 0.00 | 0.00 | 0.00 | 34 | 1016.6 |
| 20260509031004 | 16 | 173 | 0.0 | 0.0 | 0.00 | 0.00 | 0.00 | 34 | 1016.6 |
| 20260509030435 | 16 | 282 | 0.0 | 1.6 | 0.00 | 0.00 | 0.00 | 34 | 1016.5 |
| 20260509025932 | 16 | 282 | 0.0 | 1.6 | 0.00 | 0.00 | 0.00 | 33 | 1016.5 |
| 20260509025429 | 16 | 282 | 0.0 | 1.6 | 0.00 | 0.00 | 0.00 | 33 | 1016.5 |
| 20260509024925 | 17 | 241 | 0.0 | 1.6 | 0.00 | 0.00 | 0.00 | 32 | 1016.5 |
| 20260509024418 | 17 | 184 | 0.0 | 11.3 | 0.00 | 0.00 | 0.00 | 32 | 1016.3 |
| 20260509023849 | 17 | 283 | 0.0 | 11.3 | 0.00 | 0.00 | 0.00 | 32 | 1016.3 |
| 20260509023619 | 17 | 284 | 0.0 | 4.8 | 0.00 | 0.00 | 0.00 | 31 | 1016.2 |
| 20260509022819 | 17 | 316 | 0.0 | 4.8 | 0.00 | 0.00 | 0.00 | 32 | 1016.2 |
| 20260509022315 | 17 | 286 | 0.0 | 4.8 | 0.00 | 0.00 | 0.00 | 31 | 1016.1 |
| 20260509021811 | 17 | 261 | 0.0 | 4.8 | 0.00 | 0.00 | 0.00 | 31 | 1016.0 |
| 20260509021257 | 17 | 240 | 0.0 | 3.2 | 0.00 | 0.00 | 0.00 | 31 | 1015.9 |
| 20260509020745 | 17 | 290 | 0.0 | 3.2 | 0.00 | 0.00 | 0.00 | 30 | 1015.8 |
| 20260509020216 | 18 | 234 | 0.0 | 3.2 | 0.00 | 0.00 | 0.00 | 30 | 1015.7 |
| 20260509015711 | 18 | 231 | 0.0 | 3.2 | 0.00 | 0.00 | 0.00 | 29 | 1015.6 |
| 20260509015147 | 18 | 208 | 0.0 | 1.6 | 0.00 | 0.00 | 0.00 | 29 | 1015.5 |
| 20260509015129 | 18 | 215 | 0.0 | 3.2 | 0.00 | 0.00 | 0.00 | 29 | 1015.5 |
| 20260509014107 | 18 | 220 | 0.0 | 3.2 | 0.00 | 0.00 | 0.00 | 28 | 1015.4 |
| 20260509013607 | 18 | 260 | 0.0 | 3.2 | 0.00 | 0.00 | 0.00 | 27 | 1015.4 |
| 20260509013040 | 18 | 219 | 0.0 | 1.6 | 0.00 | 0.00 | 0.00 | 27 | 1015.3 |
| 20260509012742 | 18 | 200 | 0.0 | 1.6 | 0.00 | 0.00 | 0.00 | 26 | 1015.2 |
| 20260509012241 | 19 | 200 | 0.0 | 3.2 | 0.00 | 0.00 | 0.00 | 26 | 1015.2 |
| 20260509011449 | 19 | 242 | 0.0 | 3.2 | 0.00 | 0.00 | 0.00 | 25 | 1015.0 |
| 20260509010906 | 19 | 5 | 0.0 | 4.8 | 0.00 | 0.00 | 0.00 | 25 | 1015.0 |
| 20260509010407 | 19 | 355 | 0.0 | 4.8 | 0.00 | 0.00 | 0.00 | 25 | 1015.0 |
| 20260509005906 | 20 | 194 | 0.0 | 9.7 | 0.00 | 0.00 | 0.00 | 25 | 1015.0 |
| 20260509005637 | 20 | 260 | 0.0 | 9.7 | 0.00 | 0.00 | 0.00 | 25 | 1014.9 |
| 20260509004910 | 20 | 215 | 0.0 | 16.1 | 0.00 | 0.00 | 0.00 | 25 | 1014.8 |
| 20260509004351 | 20 | 226 | 0.0 | 16.1 | 0.00 | 0.00 | 0.00 | 24 | 1014.8 |
| 20260509003854 | 20 | 226 | 0.0 | 6.4 | 0.00 | 0.00 | 0.00 | 25 | 1014.8 |
| 20260509003350 | 20 | 150 | 0.0 | 6.4 | 0.00 | 0.00 | 0.00 | 25 | 1014.8 |
| 20260509002846 | 20 | 254 | 0.0 | 9.7 | 0.00 | 0.00 | 0.00 | 24 | 1014.8 |
| 20260509002321 | 20 | 246 | 0.0 | 9.7 | 0.00 | 0.00 | 0.00 | 25 | 1014.7 |
| 20260509001754 | 21 | 267 | 0.0 | 6.4 | 0.00 | 0.00 | 0.00 | 25 | 1014.7 |
| 20260509001257 | 21 | 217 | 0.0 | 24.1 | 0.00 | 0.00 | 0.00 | 25 | 1014.8 |
| 20260509000739 | 21 | 274 | 0.0 | 24.1 | 0.00 | 0.00 | 0.00 | 25 | 1014.7 |
| 20260509000242 | 21 | 243 | 0.0 | 6.4 | 0.00 | 0.00 | 0.00 | 25 | 1014.8 |
| 20260508235716 | 21 | 266 | 0.0 | 6.4 | 0.00 | 0.00 | 0.00 | 24 | 1014.7 |
| 20260508235206 | 21 | 290 | 0.0 | 11.3 | 0.00 | 0.00 | 0.00 | 24 | 1014.7 |
| 20260508234705 | 21 | 267 | 0.0 | 11.3 | 0.00 | 0.00 | 0.00 | 24 | 1014.7 |
| 20260508234147 | 22 | 276 | 0.0 | 16.1 | 0.00 | 0.00 | 0.00 | 24 | 1014.8 |
| 20260508233614 | 22 | 251 | 0.0 | 16.1 | 0.00 | 0.00 | 0.00 | 24 | 1014.8 |
| 20260508233324 | 22 | 236 | 0.0 | 6.4 | 0.00 | 0.00 | 0.00 | 25 | 1014.8 |
| 20260508232551 | 22 | 241 | 0.0 | 8.0 | 0.00 | 0.00 | 0.00 | 25 | 1014.8 |
| 20260508232026 | 22 | 242 | 0.0 | 8.0 | 0.00 | 0.00 | 0.00 | 24 | 1014.8 |
| 20260508231516 | 22 | 46 | 0.0 | 11.3 | 0.00 | 0.00 | 0.00 | 25 | 1014.8 |
| 20260508231015 | 22 | 232 | 0.0 | 11.3 | 0.00 | 0.00 | 0.00 | 23 | 1014.9 |
| 20260508230514 | 23 | 242 | 0.0 | 12.9 | 0.00 | 0.00 | 0.00 | 24 | 1014.9 |
| 20260508225952 | 23 | 220 | 0.0 | 19.3 | 0.00 | 0.00 | 0.00 | 23 | 1014.9 |
| 20260508225456 | 23 | 148 | 1.6 | 20.9 | 0.00 | 0.00 | 0.00 | 22 | 1014.8 |
| 20260508224953 | 23 | 236 | 0.0 | 20.9 | 0.00 | 0.00 | 0.00 | 22 | 1014.8 |
| 20260508224456 | 23 | 232 | 0.0 | 8.0 | 0.00 | 0.00 | 0.00 | 23 | 1014.9 |
| 20260508223935 | 23 | 273 | 0.0 | 8.0 | 0.00 | 0.00 | 0.00 | 24 | 1014.8 |
| 20260508223333 | 23 | 229 | 0.0 | 20.9 | 0.00 | 0.00 | 0.00 | 24 | 1014.8 |
| 20260508223329 | 23 | 240 | 0.0 | 1.6 | 0.00 | 0.00 | 0.00 | 23 | 1014.8 |
| 20260508222308 | 23 | 248 | 0.0 | 12.9 | 0.00 | 0.00 | 0.00 | 22 | 1014.8 |
| 20260508222014 | 23 | 180 | 0.0 | 8.0 | 0.00 | 0.00 | 0.00 | 23 | 1014.8 |
| 20260508221218 | 23 | 263 | 0.0 | 8.0 | 0.00 | 0.00 | 0.00 | 23 | 1014.9 |
| 20260508220709 | 23 | 271 | 0.0 | 8.0 | 0.00 | 0.00 | 0.00 | 23 | 1015.0 |
| 20260508220154 | 23 | 236 | 0.0 | 12.9 | 0.00 | 0.00 | 0.00 | 24 | 1015.0 |
| 20260508215924 | 22 | 277 | 0.0 | 6.4 | 0.00 | 0.00 | 0.00 | 23 | 1015.0 |
| 20260508215432 | 22 | 266 | 0.0 | 9.7 | 0.00 | 0.00 | 0.00 | 24 | 1015.3 |
| 20260508215155 | 22 | 67 | 1.6 | 20.9 | 0.00 | 0.00 | 0.00 | 23 | 1015.2 |
| 20260508214645 | 22 | 265 | 1.6 | 20.9 | 0.00 | 0.00 | 0.00 | 23 | 1015.3 |
| 20260508213645 | 22 | 269 | 0.0 | 9.7 | 0.00 | 0.00 | 0.00 | 23 | 1015.3 |
| 20260508213108 | 22 | 200 | 0.0 | 6.4 | 0.00 | 0.00 | 0.00 | 23 | 1015.4 |
| 20260508212816 | 22 | 218 | 0.0 | 6.4 | 0.00 | 0.00 | 0.00 | 23 | 1015.5 |
| 20260508212041 | 22 | 196 | 0.0 | 3.2 | 0.00 | 0.00 | 0.00 | 23 | 1015.5 |
| 20260508211752 | 22 | 214 | 0.0 | 3.2 | 0.00 | 0.00 | 0.00 | 22 | 1015.6 |
| 20260508211018 | 22 | 181 | 0.0 | 12.9 | 0.00 | 0.00 | 0.00 | 22 | 1015.6 |
| 20260508210520 | 22 | 221 | 0.0 | 12.9 | 0.00 | 0.00 | 0.00 | 21 | 1015.7 |
| 20260508205941 | 22 | 210 | 0.0 | 9.7 | 0.00 | 0.00 | 0.00 | 21 | 1015.8 |
| 20260508205436 | 23 | 248 | 0.0 | 4.8 | 0.00 | 0.00 | 0.00 | 21 | 1015.8 |
| 20260508204933 | 23 | 221 | 0.0 | 4.8 | 0.00 | 0.00 | 0.00 | 21 | 1015.9 |
| 20260508204407 | 23 | 237 | 0.0 | 8.0 | 0.00 | 0.00 | 0.00 | 22 | 1016.0 |
| 20260508203843 | 23 | 242 | 0.0 | 8.0 | 0.00 | 0.00 | 0.00 | 21 | 1016.1 |
| 20260508203618 | 23 | 250 | 0.0 | 6.4 | 0.00 | 0.00 | 0.00 | 21 | 1016.2 |
| 20260508203118 | 22 | 286 | 0.0 | 4.8 | 0.00 | 0.00 | 0.00 | 21 | 1016.4 |
| 20260508202842 | 22 | 198 | 0.0 | 4.8 | 0.00 | 0.00 | 0.00 | 22 | 1016.3 |
| 20260508201834 | 22 | 223 | 0.0 | 12.9 | 0.00 | 0.00 | 0.00 | 22 | 1016.4 |
| 20260508201308 | 23 | 267 | 0.0 | 12.9 | 0.00 | 0.00 | 0.00 | 20 | 1016.5 |
| 20260508200807 | 23 | 196 | 0.0 | 4.8 | 0.00 | 0.00 | 0.00 | 21 | 1016.7 |
| 20260508200246 | 23 | 222 | 0.0 | 3.2 | 0.00 | 0.00 | 0.00 | 21 | 1016.7 |
| 20260508195741 | 23 | 228 | 0.0 | 8.0 | 0.00 | 0.00 | 0.00 | 21 | 1016.8 |
| 20260508195442 | 23 | 219 | 0.0 | 8.0 | 0.00 | 0.00 | 0.00 | 23 | 1016.8 |
| 20260508194944 | 22 | 244 | 0.0 | 14.5 | 0.00 | 0.00 | 0.00 | 21 | 1017.0 |
| 20260508194147 | 22 | 225 | 0.0 | 6.4 | 0.00 | 0.00 | 0.00 | 23 | 1017.1 |
| 20260508193647 | 22 | 240 | 0.0 | 6.4 | 0.00 | 0.00 | 0.00 | 23 | 1017.2 |
| 20260508193148 | 22 | 198 | 0.0 | 12.9 | 0.00 | 0.00 | 0.00 | 22 | 1017.3 |
| 20260508192648 | 22 | 277 | 0.0 | 12.9 | 0.00 | 0.00 | 0.00 | 23 | 1017.4 |
| 20260508192144 | 22 | 248 | 0.0 | 6.4 | 0.00 | 0.00 | 0.00 | 23 | 1017.4 |
| 20260508191643 | 22 | 211 | 0.0 | 4.8 | 0.00 | 0.00 | 0.00 | 22 | 1017.3 |
| 20260508191138 | 22 | 153 | 0.0 | 12.9 | 0.00 | 0.00 | 0.00 | 22 | 1017.4 |
| 20260508190906 | 22 | 190 | 0.0 | 17.7 | 0.00 | 0.00 | 0.00 | 21 | 1017.6 |
| 20260508190108 | 22 | 255 | 0.0 | 4.8 | 0.00 | 0.00 | 0.00 | 20 | 1017.6 |
| 20260508185558 | 23 | 296 | 0.0 | 4.8 | 0.00 | 0.00 | 0.00 | 20 | 1017.4 |
| 20260508185057 | 23 | 170 | 0.0 | 9.7 | 0.00 | 0.00 | 0.00 | 19 | 1017.6 |
| 20260508184529 | 23 | 241 | 0.0 | 9.7 | 0.00 | 0.00 | 0.00 | 20 | 1017.6 |
| 20260508184256 | 23 | 252 | 1.6 | 17.7 | 0.00 | 0.00 | 0.00 | 19 | 1017.7 |
| 20260508183459 | 22 | 284 | 1.6 | 17.7 | 0.00 | 0.00 | 0.00 | 20 | 1017.7 |
| 20260508183454 | 22 | 304 | 0.0 | 6.4 | 0.00 | 0.00 | 0.00 | 20 | 1017.8 |
| 20260508182431 | 22 | 266 | 1.6 | 14.5 | 0.00 | 0.00 | 0.00 | 20 | 1017.9 |
| 20260508181929 | 22 | 244 | 1.6 | 14.5 | 0.00 | 0.00 | 0.00 | 21 | 1018.0 |
| 20260508181403 | 22 | 257 | 0.0 | 16.1 | 0.00 | 0.00 | 0.00 | 20 | 1018.2 |
| 20260508181105 | 23 | 235 | 0.0 | 16.1 | 0.00 | 0.00 | 0.00 | 19 | 1018.2 |
| 20260508180333 | 23 | 257 | 0.0 | 9.7 | 0.00 | 0.00 | 0.00 | 20 | 1018.3 |
| 20260508175816 | 22 | 232 | 0.0 | 9.7 | 0.00 | 0.00 | 0.00 | 20 | 1018.3 |
| 20260508175317 | 22 | 241 | 0.0 | 16.1 | 0.00 | 0.00 | 0.00 | 22 | 1018.4 |
| 20260508174752 | 21 | 240 | 0.0 | 16.1 | 0.00 | 0.00 | 0.00 | 21 | 1018.6 |
| 20260508174726 | 21 | 250 | 1.6 | 19.3 | 0.00 | 0.00 | 0.00 | 22 | 1018.7 |
| 20260508173656 | 21 | 217 | 1.6 | 19.3 | 0.00 | 0.00 | 0.00 | 21 | 1018.8 |
| 20260508173155 | 22 | 214 | 0.0 | 1.6 | 0.00 | 0.00 | 0.00 | 22 | 1018.9 |
| 20260508172637 | 22 | 255 | 0.0 | 11.3 | 0.00 | 0.00 | 0.00 | 22 | 1019.0 |
| 20260508172141 | 21 | 258 | 0.0 | 11.3 | 0.00 | 0.00 | 0.00 | 22 | 1019.0 |
| 20260508171612 | 21 | 212 | 0.0 | 6.4 | 0.00 | 0.00 | 0.00 | 22 | 1019.1 |
| 20260508171111 | 21 | 219 | 0.0 | 6.4 | 0.00 | 0.00 | 0.00 | 23 | 1019.2 |
| 20260508171045 | 21 | 301 | 0.0 | 6.4 | 0.00 | 0.00 | 0.00 | 23 | 1019.2 |
| 20260508170039 | 20 | 222 | 0.0 | 4.8 | 0.00 | 0.00 | 0.00 | 25 | 1019.5 |
| 20260508165536 | 20 | 234 | 0.0 | 27.4 | 0.00 | 0.00 | 0.00 | 23 | 1019.5 |
| 20260508165250 | 20 | 225 | 0.0 | 4.8 | 0.00 | 0.00 | 0.00 | 24 | 1019.5 |
| 20260508164719 | 20 | 262 | 0.0 | 1.6 | 0.00 | 0.00 | 0.00 | 24 | 1019.7 |
| 20260508163944 | 20 | 301 | 0.0 | 6.4 | 0.00 | 0.00 | 0.00 | 24 | 1019.7 |
| 20260508163443 | 20 | 256 | 0.0 | 6.4 | 0.00 | 0.00 | 0.00 | 25 | 1019.8 |
| 20260508162917 | 19 | 236 | 0.0 | 6.4 | 0.00 | 0.00 | 0.00 | 28 | 1019.7 |
| 20260508162632 | 18 | 194 | 0.0 | 0.0 | 0.00 | 0.00 | 0.00 | 30 | 1020.0 |
| 20260508162129 | 18 | 219 | 0.0 | 0.0 | 0.00 | 0.00 | 0.00 | 32 | 1020.0 |
| 20260508161356 | 17 | 219 | 0.0 | 0.0 | 0.00 | 0.00 | 0.00 | 33 | 1020.1 |
| 20260508160855 | 17 | 204 | 0.0 | 1.6 | 0.00 | 0.00 | 0.00 | 33 | 1020.2 |
| 20260508160326 | 17 | 203 | 0.0 | 1.6 | 0.00 | 0.00 | 0.00 | 33 | 1020.2 |
| 20260508160053 | 16 | 205 | 0.0 | 0.0 | 0.00 | 0.00 | 0.00 | 34 | 1020.3 |
| 20260508155256 | 16 | 175 | 0.0 | 1.6 | 0.00 | 0.00 | 0.00 | 34 | 1020.3 |
| 20260508154748 | 16 | 190 | 0.0 | 1.6 | 0.00 | 0.00 | 0.00 | 34 | 1020.4 |
| 20260508154220 | 16 | 242 | 0.0 | 3.2 | 0.00 | 0.00 | 0.00 | 34 | 1020.5 |
| 20260508153655 | 15 | 221 | 0.0 | 6.4 | 0.00 | 0.00 | 0.00 | 35 | 1020.6 |
| 20260508153128 | 15 | 245 | 0.0 | 1.6 | 0.00 | 0.00 | 0.00 | 35 | 1020.6 |
| 20260508152611 | 15 | 248 | 0.0 | 14.5 | 0.00 | 0.00 | 0.00 | 34 | 1020.6 |
| 20260508152110 | 15 | 213 | 0.0 | 14.5 | 0.00 | 0.00 | 0.00 | 34 | 1020.6 |
| 20260508151850 | 15 | 200 | 0.0 | 8.0 | 0.00 | 0.00 | 0.00 | 35 | 1020.6 |
| 20260508151613 | 15 | 189 | 0.0 | 8.0 | 0.00 | 0.00 | 0.00 | 35 | 1020.6 |
| 20260508150607 | 15 | 226 | 0.0 | 11.3 | 0.00 | 0.00 | 0.00 | 35 | 1020.7 |
| 20260508150042 | 14 | 228 | 1.6 | 11.3 | 0.00 | 0.00 | 0.00 | 34 | 1020.7 |
| 20260508145742 | 14 | 213 | 1.6 | 16.1 | 0.00 | 0.00 | 0.00 | 35 | 1020.7 |
| 20260508145009 | 14 | 213 | 1.6 | 16.1 | 0.00 | 0.00 | 0.00 | 35 | 1020.7 |
| 20260508144714 | 13 | 216 | 0.0 | 16.1 | 0.00 | 0.00 | 0.00 | 37 | 1020.8 |
| 20260508144152 | 13 | 235 | 3.2 | 16.1 | 0.00 | 0.00 | 0.00 | 37 | 1020.9 |
| 20260508143917 | 13 | 190 | 1.6 | 16.1 | 0.00 | 0.00 | 0.00 | 37 | 1020.8 |
| 20260508142848 | 13 | 194 | 3.2 | 16.1 | 0.00 | 0.00 | 0.00 | 36 | 1020.9 |
| 20260508142346 | 13 | 197 | 3.2 | 20.9 | 0.00 | 0.00 | 0.00 | 36 | 1020.9 |
| 20260508141829 | 13 | 213 | 1.6 | 20.9 | 0.00 | 0.00 | 0.00 | 37 | 1021.0 |
| 20260508141332 | 13 | 232 | 0.0 | 9.7 | 0.00 | 0.00 | 0.00 | 38 | 1020.9 |
| 20260508140804 | 12 | 182 | 0.0 | 1.6 | 0.00 | 0.00 | 0.00 | 40 | 1021.0 |
| 20260508140303 | 12 | 235 | 0.0 | 6.4 | 0.00 | 0.00 | 0.00 | 39 | 1021.0 |
| 20260508135737 | 12 | 236 | 0.0 | 6.4 | 0.00 | 0.00 | 0.00 | 40 | 1021.1 |
| 20260508135443 | 12 | 211 | 0.0 | 16.1 | 0.00 | 0.00 | 0.00 | 40 | 1021.1 |
| 20260508134940 | 11 | 227 | 3.2 | 16.1 | 0.00 | 0.00 | 0.00 | 40 | 1021.1 |
| 20260508134131 | 11 | 215 | 3.2 | 17.7 | 0.00 | 0.00 | 0.00 | 39 | 1021.1 |
| 20260508133602 | 11 | 241 | 1.6 | 14.5 | 0.00 | 0.00 | 0.00 | 40 | 1021.2 |
| 20260508133039 | 11 | 242 | 1.6 | 17.7 | 0.00 | 0.00 | 0.00 | 40 | 1021.2 |
| 20260508132512 | 11 | 194 | 1.6 | 17.7 | 0.00 | 0.00 | 0.00 | 39 | 1021.2 |
| 20260508132015 | 11 | 208 | 1.6 | 11.3 | 0.00 | 0.00 | 0.00 | 40 | 1021.2 |
| 20260508131516 | 11 | 205 | 1.6 | 16.1 | 0.00 | 0.00 | 0.00 | 39 | 1021.3 |
| 20260508130959 | 11 | 185 | 1.6 | 16.1 | 0.00 | 0.00 | 0.00 | 40 | 1021.2 |
| 20260508130501 | 11 | 196 | 3.2 | 16.1 | 0.00 | 0.00 | 0.00 | 40 | 1021.3 |
| 20260508130207 | 10 | 205 | 1.6 | 16.1 | 0.00 | 0.00 | 0.00 | 41 | 1021.3 |
| 20260508130052 | 10 | 205 | 1.6 | 16.1 | 0.00 | 0.00 | 0.00 | 42 | 1021.3 |
| 20260508124936 | 10 | 196 | 1.6 | 16.1 | 0.00 | 0.00 | 0.00 | 42 | 1021.3 |
| 20260508124920 | 9 | 225 | 3.2 | 19.3 | 0.00 | 0.00 | 0.00 | 42 | 1021.3 |
| 20260508123918 | 9 | 225 | 3.2 | 19.3 | 0.00 | 0.00 | 0.00 | 43 | 1021.3 |
| 20260508123423 | 9 | 205 | 1.6 | 17.7 | 0.00 | 0.00 | 0.00 | 42 | 1021.3 |
| 20260508122917 | 8 | 196 | 1.6 | 16.1 | 0.00 | 0.00 | 0.00 | 44 | 1021.3 |
| 20260508122417 | 8 | 196 | 1.6 | 16.1 | 0.00 | 0.00 | 0.00 | 43 | 1021.3 |
| 20260508122412 | 8 | 213 | 1.6 | 12.9 | 0.00 | 0.00 | 0.00 | 44 | 1021.3 |
| 20260508121410 | 8 | 216 | 0.0 | 12.9 | 0.00 | 0.00 | 0.00 | 45 | 1021.2 |
| 20260508120904 | 8 | 209 | 0.0 | 12.9 | 0.00 | 0.00 | 0.00 | 45 | 1021.2 |
| 20260508120405 | 8 | 190 | 0.0 | 8.0 | 0.00 | 0.00 | 0.00 | 45 | 1021.2 |
| 20260508115858 | 7 | 209 | 0.0 | 8.0 | 0.00 | 0.00 | 0.00 | 45 | 1021.1 |
| 20260508115629 | 7 | 225 | 1.6 | 14.5 | 0.00 | 0.00 | 0.00 | 45 | 1021.1 |
| 20260508114841 | 7 | 217 | 3.2 | 12.9 | 0.00 | 0.00 | 0.00 | 45 | 1021.2 |
| 20260508114613 | 7 | 206 | 1.6 | 14.5 | 0.00 | 0.00 | 0.00 | 45 | 1021.1 |
| 20260508113836 | 7 | 195 | 0.0 | 9.7 | 0.00 | 0.00 | 0.00 | 46 | 1021.1 |
| 20260508113339 | 7 | 212 | 0.0 | 11.3 | 0.00 | 0.00 | 0.00 | 46 | 1021.2 |
| 20260508113048 | 7 | 221 | 0.0 | 11.3 | 0.00 | 0.00 | 0.00 | 46 | 1021.2 |
| 20260508112316 | 7 | 217 | 0.0 | 6.4 | 0.00 | 0.00 | 0.00 | 46 | 1021.2 |
| 20260508111756 | 7 | 200 | 0.0 | 8.0 | 0.00 | 0.00 | 0.00 | 46 | 1021.2 |
| 20260508111500 | 7 | 203 | 1.6 | 12.9 | 0.00 | 0.00 | 0.00 | 46 | 1021.2 |
| 20260508110939 | 7 | 189 | 0.0 | 12.9 | 0.00 | 0.00 | 0.00 | 47 | 1021.2 |
| 20260508110439 | 7 | 200 | 0.0 | 6.4 | 0.00 | 0.00 | 0.00 | 47 | 1021.2 |
| 20260508105936 | 7 | 238 | 0.0 | 12.9 | 0.00 | 0.00 | 0.00 | 47 | 1021.2 |
| 20260508105434 | 7 | 209 | 0.0 | 9.7 | 0.00 | 0.00 | 0.00 | 47 | 1021.2 |
| 20260508104934 | 6 | 225 | 0.0 | 8.0 | 0.00 | 0.00 | 0.00 | 47 | 1021.2 |
| 20260508104142 | 6 | 221 | 0.0 | 8.0 | 0.00 | 0.00 | 0.00 | 48 | 1021.2 |
| 20260508103643 | 6 | 194 | 0.0 | 4.8 | 0.00 | 0.00 | 0.00 | 48 | 1021.2 |
| 20260508103416 | 6 | 209 | 0.0 | 11.3 | 0.00 | 0.00 | 0.00 | 48 | 1021.2 |
| 20260508102622 | 6 | 192 | 0.0 | 11.3 | 0.00 | 0.00 | 0.00 | 48 | 1021.3 |
| 20260508102121 | 6 | 193 | 0.0 | 6.4 | 0.00 | 0.00 | 0.00 | 48 | 1021.3 |
| 20260508101604 | 6 | 208 | 0.0 | 4.8 | 0.00 | 0.00 | 0.00 | 48 | 1021.3 |
| 20260508101104 | 6 | 196 | 0.0 | 3.2 | 0.00 | 0.00 | 0.00 | 48 | 1021.4 |
| 20260508100606 | 6 | 212 | 0.0 | 6.4 | 0.00 | 0.00 | 0.00 | 48 | 1021.3 |
| 20260508100105 | 6 | 225 | 0.0 | 6.4 | 0.00 | 0.00 | 0.00 | 48 | 1021.4 |
| 20260508095540 | 6 | 182 | 0.0 | 4.8 | 0.00 | 0.00 | 0.00 | 47 | 1021.3 |
| 20260508095035 | 7 | 211 | 0.0 | 1.6 | 0.00 | 0.00 | 0.00 | 47 | 1021.3 |
| 20260508094537 | 7 | 202 | 0.0 | 1.6 | 0.00 | 0.00 | 0.00 | 46 | 1021.4 |
| 20260508094026 | 7 | 206 | 0.0 | 6.4 | 0.00 | 0.00 | 0.00 | 46 | 1021.4 |
| 20260508093507 | 7 | 207 | 0.0 | 6.4 | 0.00 | 0.00 | 0.00 | 45 | 1021.4 |
| 20260508093003 | 7 | 209 | 0.0 | 1.6 | 0.00 | 0.00 | 0.00 | 45 | 1021.4 |
| 20260508092442 | 7 | 191 | 0.0 | 11.3 | 0.00 | 0.00 | 0.00 | 45 | 1021.4 |
| 20260508091911 | 7 | 212 | 0.0 | 11.3 | 0.00 | 0.00 | 0.00 | 44 | 1021.4 |
| 20260508091639 | 7 | 204 | 0.0 | 12.9 | 0.00 | 0.00 | 0.00 | 44 | 1021.5 |
| 20260508091137 | 7 | 211 | 0.0 | 12.9 | 0.00 | 0.00 | 0.00 | 44 | 1021.4 |
| 20260508090410 | 7 | 205 | 1.6 | 14.5 | 0.00 | 0.00 | 0.00 | 44 | 1021.4 |
| 20260508085833 | 7 | 203 | 1.6 | 14.5 | 0.00 | 0.00 | 0.00 | 44 | 1021.5 |
| 20260508085301 | 7 | 207 | 0.0 | 8.0 | 0.00 | 0.00 | 0.00 | 45 | 1021.5 |
| 20260508084731 | 7 | 204 | 0.0 | 4.8 | 0.00 | 0.00 | 0.00 | 44 | 1021.5 |
| 20260508084437 | 7 | 184 | 0.0 | 8.0 | 0.00 | 0.00 | 0.00 | 44 | 1021.5 |
| 20260508083710 | 7 | 203 | 0.0 | 8.0 | 0.00 | 0.00 | 0.00 | 44 | 1021.5 |
| 20260508083149 | 7 | 207 | 0.0 | 6.4 | 0.00 | 0.00 | 0.00 | 45 | 1021.5 |
| 20260508082646 | 7 | 190 | 0.0 | 11.3 | 0.00 | 0.00 | 0.00 | 45 | 1021.6 |
| 20260508082143 | 7 | 215 | 1.6 | 11.3 | 0.00 | 0.00 | 0.00 | 45 | 1021.6 |
| 20260508081641 | 7 | 227 | 1.6 | 16.1 | 0.00 | 0.00 | 0.00 | 45 | 1021.5 |
| 20260508081344 | 7 | 208 | 0.0 | 16.1 | 0.00 | 0.00 | 0.00 | 45 | 1021.6 |
| 20260508080611 | 7 | 215 | 0.0 | 8.0 | 0.00 | 0.00 | 0.00 | 46 | 1021.7 |
| 20260508080059 | 7 | 205 | 0.0 | 8.0 | 0.00 | 0.00 | 0.00 | 46 | 1021.7 |
| 20260508075556 | 7 | 200 | 0.0 | 3.2 | 0.00 | 0.00 | 0.00 | 46 | 1021.7 |
| 20260508075032 | 7 | 212 | 0.0 | 4.8 | 0.00 | 0.00 | 0.00 | 46 | 1021.7 |
| 20260508074506 | 7 | 196 | 0.0 | 4.8 | 0.00 | 0.00 | 0.00 | 46 | 1021.8 |
| 20260508073940 | 7 | 210 | 0.0 | 3.2 | 0.00 | 0.00 | 0.00 | 46 | 1021.8 |
| 20260508073420 | 7 | 215 | 0.0 | 3.2 | 0.00 | 0.00 | 0.00 | 46 | 1021.8 |
| 20260508072917 | 7 | 194 | 0.0 | 4.8 | 0.00 | 0.00 | 0.00 | 46 | 1021.9 |
| 20260508072416 | 7 | 197 | 0.0 | 4.8 | 0.00 | 0.00 | 0.00 | 46 | 1021.9 |
| 20260508071850 | 7 | 223 | 0.0 | 3.2 | 0.00 | 0.00 | 0.00 | 46 | 1021.9 |
| 20260508071324 | 7 | 202 | 0.0 | 1.6 | 0.00 | 0.00 | 0.00 | 46 | 1022.0 |
| 20260508070758 | 7 | 196 | 0.0 | 12.9 | 0.00 | 0.00 | 0.00 | 46 | 1022.0 |
| 20260508070241 | 7 | 230 | 0.0 | 12.9 | 0.00 | 0.00 | 0.00 | 46 | 1022.0 |
| 20260508070015 | 7 | 188 | 0.0 | 4.8 | 0.00 | 0.00 | 0.00 | 46 | 1022.1 |
| 20260508065217 | 7 | 202 | 0.0 | 4.8 | 0.00 | 0.00 | 0.00 | 46 | 1022.1 |
| 20260508064944 | 7 | 198 | 0.0 | 8.0 | 0.00 | 0.00 | 0.00 | 46 | 1022.1 |
| 20260508064210 | 7 | 207 | 0.0 | 8.0 | 0.00 | 0.00 | 0.00 | 46 | 1022.1 |
| 20260508063940 | 7 | 215 | 0.0 | 1.6 | 0.00 | 0.00 | 0.00 | 47 | 1022.2 |
| 20260508063141 | 7 | 200 | 0.0 | 3.2 | 0.00 | 0.00 | 0.00 | 47 | 1022.2 |
| 20260508062624 | 7 | 213 | 0.0 | 3.2 | 0.00 | 0.00 | 0.00 | 46 | 1022.2 |
| 20260508062328 | 7 | 211 | 0.0 | 4.8 | 0.00 | 0.00 | 0.00 | 46 | 1022.4 |
| 20260508061529 | 7 | 221 | 0.0 | 4.8 | 0.00 | 0.00 | 0.00 | 46 | 1022.5 |
| 20260508061028 | 7 | 207 | 0.0 | 0.0 | 0.00 | 0.00 | 0.00 | 46 | 1022.5 |
| 20260508060459 | 8 | 202 | 0.0 | 0.0 | 0.00 | 0.00 | 0.00 | 46 | 1022.5 |
| 20260508055957 | 8 | 202 | 0.0 | 0.0 | 0.00 | 0.00 | 0.00 | 45 | 1022.5 |
| 20260508055448 | 8 | 205 | 0.0 | 0.0 | 0.00 | 0.00 | 0.00 | 44 | 1022.5 |
| 20260508054919 | 8 | 207 | 0.0 | 0.0 | 0.00 | 0.00 | 0.00 | 43 | 1022.6 |
| 20260508054418 | 8 | 219 | 0.0 | 1.6 | 0.00 | 0.00 | 0.00 | 43 | 1022.6 |
| 20260508053849 | 8 | 202 | 0.0 | 1.6 | 0.00 | 0.00 | 0.00 | 42 | 1022.6 |
| 20260508053324 | 8 | 220 | 0.0 | 0.0 | 0.00 | 0.00 | 0.00 | 42 | 1022.6 |
| 20260508052807 | 8 | 209 | 0.0 | 1.6 | 0.00 | 0.00 | 0.00 | 42 | 1022.6 |
| 20260508052310 | 8 | 215 | 0.0 | 1.6 | 0.00 | 0.00 | 0.00 | 42 | 1022.7 |
| 20260508051741 | 8 | 207 | 0.0 | 1.6 | 0.00 | 0.00 | 0.00 | 42 | 1022.7 |
| 20260508051240 | 8 | 206 | 0.0 | 0.0 | 0.00 | 0.00 | 0.00 | 42 | 1022.7 |
| 20260508050712 | 9 | 209 | 0.0 | 0.0 | 0.00 | 0.00 | 0.00 | 42 | 1022.7 |
| 20260508050143 | 9 | 225 | 0.0 | 0.0 | 0.00 | 0.00 | 0.00 | 40 | 1022.8 |
| 20260508045912 | 9 | 202 | 0.0 | 0.0 | 0.00 | 0.00 | 0.00 | 40 | 1022.7 |
| 20260508045132 | 9 | 200 | 0.0 | 0.0 | 0.00 | 0.00 | 0.00 | 39 | 1022.8 |
| 20260508044607 | 9 | 200 | 0.0 | 0.0 | 0.00 | 0.00 | 0.00 | 40 | 1022.8 |
| 20260508044059 | 9 | 200 | 0.0 | 0.0 | 0.00 | 0.00 | 0.00 | 40 | 1022.9 |
| 20260508043557 | 9 | 212 | 0.0 | 0.0 | 0.00 | 0.00 | 0.00 | 42 | 1022.9 |
| 20260508043029 | 9 | 212 | 0.0 | 0.0 | 0.00 | 0.00 | 0.00 | 42 | 1023.0 |
| 20260508042528 | 9 | 212 | 0.0 | 0.0 | 0.00 | 0.00 | 0.00 | 42 | 1022.9 |
| 20260508042023 | 9 | 212 | 0.0 | 0.0 | 0.00 | 0.00 | 0.00 | 41 | 1023.0 |
| 20260508041526 | 10 | 224 | 0.0 | 0.0 | 0.00 | 0.00 | 0.00 | 39 | 1023.0 |
| 20260508041251 | 10 | 224 | 0.0 | 0.0 | 0.00 | 0.00 | 0.00 | 39 | 1023.0 |
| 20260508040524 | 10 | 224 | 0.0 | 0.0 | 0.00 | 0.00 | 0.00 | 38 | 1023.0 |